2007 VW266

Japanese version
Home page
Total 6,336 html files since Dec. 4, 1995
Updated on December 16, 2007

---------------------------------------------------------------------

* Profile

Discovery Date November 12, 2007
Magnitude 21.4 mag
Discoverer Mt. Lemmon Survey

* Orbital Elements

Epoch 2007 Oct. 27.0 TT = JDT 2454400.5                 MPC
M 335.59704              (2000.0)            P               Q
n   0.08120012     Peri.  225.48029     +0.13938689     +0.29598673
a   5.2815933      Node   276.50613     +0.93179886     -0.36218069
e   0.3668102      Incl.  107.99332     -0.33514502     -0.88386481
P  12.14           H   15.0           G   0.15           U   7

* Magnitudes Graph

        H = 15.0  G = 0.15

---------------------------------------------------------------------

The orbital elements are published on M.P.E.C. 2007-W21.
The magnitudes graphs are made with Comet for Windows.

---------------------------------------------------------------------

Copyright(C) 1995-2008 Seiichi Yoshida (comet@aerith.net). All rights reserved.